Orbital Elements at Epoch 2459200.5 (2020-Dec-17.0) TDB
Reference: JPL 20 (heliocentric ecliptic J2000)
Element | Value | Uncertainty (1-sigma) | Units |
e | .09150826205842252 | 4.6177e-08 | |
a | 2.300581571797583 | 8.8007e-09 | au |
q | 2.090059350438752 | 1.0875e-07 | au |
i | 6.957188322852143 | 6.026e-06 | deg |
node | 204.9781876557211 | 2.9671e-05 | deg |
peri | 209.4412242655152 | 4.2012e-05 | deg |
M | 337.5388030087292 | 3.0603e-05 | deg |
tp | 2459280.021630805167 (2021-Mar-06.52163080) | 0.0001084 | TDB |
period | 1274.544143884501 3.49 | 7.3135e-06 2.002e-08 | d yr |
n | .2824539281180229 | 1.6208e-09 | deg/d |
Q | 2.511103793156414 | 9.6061e-09 | au |
|
| | Orbit Determination Parameters
Additional Information
|